Time,TemperatureF,DewpointF,PressureIn,WindDirection,WindDirectionDegrees,WindSpeedMPH,WindSpeedGustMPH,Humidity,HourlyPrecipIn,Conditions,Clouds,dailyrainin,SoftwareType,DateUTC
2014-02-03 00:00:00,28.5,21.0,30.89,North,0,0.0,5.3,73,0.00,,,0.00,WUHU216HW,2014-02-03 05:00:00,
2014-02-03 00:01:00,28.5,21.0,30.89,North,0,0.0,5.3,73,0.00,,,0.00,WUHU216HW,2014-02-03 05:01:00,
2014-02-03 00:02:00,28.5,21.0,30.89,North,0,0.0,5.3,73,0.00,,,0.00,WUHU216HW,2014-02-03 05:02:00,
2014-02-03 00:11:00,28.5,21.0,30.89,North,0,0.0,0.0,73,0.00,,,0.00,WUHU216HW,2014-02-03 05:11:00,
2014-02-03 00:16:00,28.4,20.8,30.88,NNW,338,1.7,1.7,73,0.00,,,0.00,WUHU216HW,2014-02-03 05:16:00,
2014-02-03 00:21:00,28.2,20.6,30.87,NNW,338,1.5,1.7,73,0.00,,,0.00,WUHU216HW,2014-02-03 05:21:00,
2014-02-03 00:26:00,28.0,20.4,30.87,North,0,0.0,1.7,73,0.00,,,0.00,WUHU216HW,2014-02-03 05:26:00,
2014-02-03 00:31:00,28.0,20.4,30.87,NNE,23,0.0,1.1,73,0.00,,,0.00,WUHU216HW,2014-02-03 05:31:00,
2014-02-03 00:36:00,27.8,20.3,30.87,NNE,23,0.0,1.3,73,0.00,,,0.00,WUHU216HW,2014-02-03 05:36:00,
2014-02-03 00:41:00,27.8,20.3,30.86,NNE,23,0.0,1.3,73,0.00,,,0.00,WUHU216HW,2014-02-03 05:41:00,
2014-02-03 00:46:00,27.8,20.6,30.85,NNE,23,0.0,0.0,74,0.00,,,0.00,WUHU216HW,2014-02-03 05:46:00,
2014-02-03 00:51:00,27.8,20.6,30.85,NNE,23,0.0,0.0,74,0.00,,,0.00,WUHU216HW,2014-02-03 05:51:00,
2014-02-03 00:56:00,27.8,20.4,30.86,NNE,23,0.0,0.0,74,0.00,,,0.00,WUHU216HW,2014-02-03 05:56:00,
2014-02-03 01:01:00,27.6,20.4,30.85,North,0,0.0,0.0,74,0.00,,,0.00,WUHU216HW,2014-02-03 06:01:00,
2014-02-03 01:06:00,27.6,20.4,30.85,North,0,0.0,0.0,74,0.00,,,0.00,WUHU216HW,2014-02-03 06:06:00,
2014-02-03 01:11:00,27.6,20.4,30.85,NNE,23,0.0,0.0,74,0.00,,,0.00,WUHU216HW,2014-02-03 06:11:00,
2014-02-03 01:16:00,27.5,20.2,30.85,NNE,23,0.0,0.0,74,0.00,,,0.00,WUHU216HW,2014-02-03 06:16:00,
2014-02-03 01:21:00,27.5,20.2,30.85,ENE,68,0.0,0.0,74,0.00,,,0.00,WUHU216HW,2014-02-03 06:21:00,
2014-02-03 01:26:00,27.3,20.0,30.84,WNW,293,1.1,2.0,74,0.00,,,0.00,WUHU216HW,2014-02-03 06:26:00,
2014-02-03 01:31:00,27.3,20.0,30.84,NNW,338,0.0,2.0,74,0.00,,,0.00,WUHU216HW,2014-02-03 06:31:00,
2014-02-03 01:36:00,27.3,20.0,30.84,ENE,68,0.0,0.0,74,0.00,,,0.00,WUHU216HW,2014-02-03 06:36:00,
2014-02-03 01:41:00,27.3,20.0,30.85,NNE,23,0.0,0.0,74,0.00,,,0.00,WUHU216HW,2014-02-03 06:41:00,
2014-02-03 01:46:00,27.1,19.7,30.84,NNE,23,0.0,0.0,74,0.00,,,0.00,WUHU216HW,2014-02-03 06:46:00,
2014-02-03 01:51:00,26.9,19.7,30.84,NNE,23,0.0,0.0,74,0.00,,,0.00,WUHU216HW,2014-02-03 06:51:00,
2014-02-03 01:56:00,26.9,19.7,30.84,NNE,23,0.0,0.0,74,0.00,,,0.00,WUHU216HW,2014-02-03 06:56:00,
2014-02-03 02:01:00,26.9,19.5,30.84,SW,225,0.0,0.0,74,0.00,,,0.00,WUHU216HW,2014-02-03 07:01:00,
2014-02-03 02:06:00,26.7,19.5,30.84,North,0,0.0,0.0,74,0.00,,,0.00,WUHU216HW,2014-02-03 07:06:00,
2014-02-03 02:11:00,26.7,19.5,30.84,NW,315,0.0,0.0,74,0.00,,,0.00,WUHU216HW,2014-02-03 07:11:00,
2014-02-03 02:16:00,26.7,19.5,30.84,East,90,0.0,0.0,74,0.00,,,0.00,WUHU216HW,2014-02-03 07:16:00,
2014-02-03 02:21:00,26.4,19.1,30.84,North,0,0.0,0.0,74,0.00,,,0.00,WUHU216HW,2014-02-03 07:21:00,
2014-02-03 02:26:00,26.4,19.0,30.84,North,0,0.0,0.0,74,0.00,,,0.00,WUHU216HW,2014-02-03 07:26:00,
2014-02-03 02:31:00,26.2,19.0,30.84,North,0,0.0,0.0,74,0.00,,,0.00,WUHU216HW,2014-02-03 07:31:00,
2014-02-03 02:36:00,26.2,19.3,30.84,North,0,0.0,0.0,75,0.00,,,0.00,WUHU216HW,2014-02-03 07:36:00,
2014-02-03 02:41:00,26.2,19.3,30.84,East,90,0.0,0.0,75,0.00,,,0.00,WUHU216HW,2014-02-03 07:41:00,
2014-02-03 02:46:00,26.2,19.3,30.84,NNW,338,0.0,0.0,75,0.00,,,0.00,WUHU216HW,2014-02-03 07:46:00,
2014-02-03 02:51:00,26.0,19.1,30.84,NNE,23,0.0,0.0,75,0.00,,,0.00,WUHU216HW,2014-02-03 07:51:00,
2014-02-03 02:56:00,26.0,19.1,30.83,North,0,0.0,0.0,75,0.00,,,0.00,WUHU216HW,2014-02-03 07:56:00,
2014-02-03 03:01:00,26.0,19.1,30.83,SW,225,0.0,0.0,75,0.00,,,0.00,WUHU216HW,2014-02-03 08:01:00,
2014-02-03 03:06:00,25.8,18.9,30.83,NNE,23,0.0,0.0,75,0.00,,,0.00,WUHU216HW,2014-02-03 08:06:00,
2014-02-03 03:11:00,25.7,18.8,30.84,NNE,23,0.0,0.0,75,0.00,,,0.00,WUHU216HW,2014-02-03 08:11:00,
2014-02-03 03:16:00,25.7,18.8,30.84,NNE,23,0.0,0.0,75,0.00,,,0.00,WUHU216HW,2014-02-03 08:16:00,
2014-02-03 03:21:00,25.7,18.8,30.84,North,0,0.0,0.0,75,0.00,,,0.00,WUHU216HW,2014-02-03 08:21:00,
2014-02-03 03:26:00,25.7,18.8,30.84,North,0,0.0,0.0,75,0.00,,,0.00,WUHU216HW,2014-02-03 08:26:00,
2014-02-03 03:31:00,25.5,18.6,30.84,NNW,338,0.0,0.0,75,0.00,,,0.00,WUHU216HW,2014-02-03 08:31:00,
2014-02-03 03:36:00,25.5,18.6,30.83,NNW,338,0.0,0.0,75,0.00,,,0.00,WUHU216HW,2014-02-03 08:36:00,
2014-02-03 03:41:00,25.5,18.6,30.82,ENE,68,0.0,0.0,75,0.00,,,0.00,WUHU216HW,2014-02-03 08:41:00,
2014-02-03 03:46:00,25.5,18.6,30.82,ENE,68,0.0,0.0,75,0.00,,,0.00,WUHU216HW,2014-02-03 08:46:00,
2014-02-03 03:51:00,25.5,18.6,30.81,NE,45,0.0,0.0,75,0.00,,,0.00,WUHU216HW,2014-02-03 08:51:00,
2014-02-03 03:56:00,25.5,18.6,30.81,NE,45,0.0,0.0,75,0.00,,,0.00,WUHU216HW,2014-02-03 08:56:00,
2014-02-03 04:01:00,25.5,18.6,30.81,North,0,0.0,0.0,75,0.00,,,0.00,WUHU216HW,2014-02-03 09:01:00,
2014-02-03 04:06:00,25.5,18.6,30.81,North,0,0.0,0.0,75,0.00,,,0.00,WUHU216HW,2014-02-03 09:06:00,
2014-02-03 04:11:00,25.5,18.4,30.79,NNE,23,0.0,0.0,75,0.00,,,0.00,WUHU216HW,2014-02-03 09:11:00,
2014-02-03 04:16:00,25.3,18.4,30.80,NNE,23,0.0,0.0,75,0.00,,,0.00,WUHU216HW,2014-02-03 09:16:00,
2014-02-03 04:21:00,25.3,18.4,30.80,NNE,23,0.0,0.0,75,0.00,,,0.00,WUHU216HW,2014-02-03 09:21:00,
2014-02-03 04:26:00,25.3,18.4,30.81,NNE,23,0.0,0.0,75,0.00,,,0.00,WUHU216HW,2014-02-03 09:26:00,
2014-02-03 04:31:00,25.1,18.3,30.81,NNE,23,0.0,0.0,75,0.00,,,0.00,WUHU216HW,2014-02-03 09:31:00,
2014-02-03 04:36:00,25.1,18.3,30.81,NNW,338,0.0,0.0,75,0.00,,,0.00,WUHU216HW,2014-02-03 09:36:00,
2014-02-03 04:41:00,25.1,18.3,30.82,NW,315,0.0,0.0,75,0.00,,,0.00,WUHU216HW,2014-02-03 09:41:00,
2014-02-03 04:46:00,25.1,18.3,30.81,NNE,23,0.0,0.0,75,0.00,,,0.00,WUHU216HW,2014-02-03 09:46:00,
2014-02-03 04:51:00,25.1,18.3,30.82,NNW,338,0.0,0.0,75,0.00,,,0.00,WUHU216HW,2014-02-03 09:51:00,
2014-02-03 04:56:00,25.1,18.1,30.81,NNE,23,0.0,0.0,75,0.00,,,0.00,WUHU216HW,2014-02-03 09:56:00,
2014-02-03 05:01:00,24.9,18.1,30.80,NNE,23,0.0,0.0,75,0.00,,,0.00,WUHU216HW,2014-02-03 10:01:00,
2014-02-03 05:06:00,24.9,18.1,30.80,NNE,23,0.0,0.0,75,0.00,,,0.00,WUHU216HW,2014-02-03 10:06:00,
2014-02-03 05:11:00,24.9,18.1,30.79,North,0,0.0,0.0,75,0.00,,,0.00,WUHU216HW,2014-02-03 10:11:00,
2014-02-03 05:16:00,24.9,18.1,30.80,NNE,23,0.0,0.0,75,0.00,,,0.00,WUHU216HW,2014-02-03 10:16:00,
2014-02-03 05:21:00,24.8,17.9,30.81,NE,45,0.0,0.0,75,0.00,,,0.00,WUHU216HW,2014-02-03 10:21:00,
2014-02-03 05:26:00,24.6,17.7,30.81,NE,45,0.0,0.0,75,0.00,,,0.00,WUHU216HW,2014-02-03 10:26:00,
2014-02-03 05:31:00,24.6,17.7,30.81,North,0,0.0,0.0,75,0.00,,,0.00,WUHU216HW,2014-02-03 10:31:00,
2014-02-03 05:36:00,24.4,17.6,30.79,NE,45,0.0,0.0,75,0.00,,,0.00,WUHU216HW,2014-02-03 10:36:00,
2014-02-03 05:41:00,24.4,17.6,30.79,North,0,0.0,0.0,75,0.00,,,0.00,WUHU216HW,2014-02-03 10:41:00,
2014-02-03 05:46:00,24.4,17.6,30.81,WNW,293,0.0,0.0,75,0.00,,,0.00,WUHU216HW,2014-02-03 10:46:00,
2014-02-03 05:51:00,24.4,17.6,30.81,NNE,23,0.0,0.0,75,0.00,,,0.00,WUHU216HW,2014-02-03 10:51:00,
2014-02-03 05:56:00,24.4,17.6,30.82,North,0,0.0,0.0,75,0.00,,,0.00,WUHU216HW,2014-02-03 10:56:00,
2014-02-03 06:01:00,24.2,17.4,30.83,NNW,338,0.0,0.0,75,0.00,,,0.00,WUHU216HW,2014-02-03 11:01:00,
2014-02-03 06:06:00,24.2,17.4,30.85,NNW,338,0.0,0.0,75,0.00,,,0.00,WUHU216HW,2014-02-03 11:06:00,
2014-02-03 06:11:00,24.2,17.4,30.83,North,0,0.0,0.0,75,0.00,,,0.00,WUHU216HW,2014-02-03 11:11:00,
2014-02-03 06:16:00,24.2,17.1,30.81,NNE,23,0.0,0.0,74,0.00,,,0.00,WUHU216HW,2014-02-03 11:16:00,
2014-02-03 06:21:00,24.2,17.1,30.83,ESE,113,0.0,0.0,74,0.00,,,0.00,WUHU216HW,2014-02-03 11:21:00,
2014-02-03 06:26:00,24.2,17.1,30.83,NW,315,0.0,0.0,74,0.00,,,0.00,WUHU216HW,2014-02-03 11:26:00,
2014-02-03 06:31:00,24.2,17.1,30.84,NNE,23,0.0,0.0,74,0.00,,,0.00,WUHU216HW,2014-02-03 11:31:00,
2014-02-03 06:36:00,24.2,17.1,30.85,North,0,0.0,0.0,74,0.00,,,0.00,WUHU216HW,2014-02-03 11:36:00,
2014-02-03 06:41:00,24.2,17.1,30.86,NNE,23,0.0,0.0,74,0.00,,,0.00,WUHU216HW,2014-02-03 11:41:00,
2014-02-03 06:46:00,24.2,16.8,30.86,North,0,0.0,0.0,73,0.00,,,0.00,WUHU216HW,2014-02-03 11:46:00,
2014-02-03 06:51:00,24.0,16.8,30.85,North,0,0.0,0.0,73,0.00,,,0.00,WUHU216HW,2014-02-03 11:51:00,
2014-02-03 06:56:00,24.0,16.6,30.84,North,0,0.0,0.0,73,0.00,,,0.00,WUHU216HW,2014-02-03 11:56:00,
2014-02-03 07:01:00,24.0,16.6,30.85,NNE,23,0.0,0.0,73,0.00,,,0.00,WUHU216HW,2014-02-03 12:01:00,
2014-02-03 07:06:00,23.9,16.6,30.85,South,180,0.0,0.0,73,0.00,,,0.00,WUHU216HW,2014-02-03 12:06:00,
2014-02-03 07:11:00,23.9,16.1,30.85,North,0,0.0,0.0,72,0.00,,,0.00,WUHU216HW,2014-02-03 12:11:00,
2014-02-03 07:16:00,23.9,16.1,30.86,NNE,23,0.0,0.0,72,0.00,,,0.00,WUHU216HW,2014-02-03 12:16:00,
2014-02-03 07:21:00,23.9,16.1,30.86,NNE,23,0.0,0.0,72,0.00,,,0.00,WUHU216HW,2014-02-03 12:21:00,
2014-02-03 07:26:00,23.9,16.1,30.86,NW,315,0.0,0.0,72,0.00,,,0.00,WUHU216HW,2014-02-03 12:26:00,
2014-02-03 07:31:00,23.9,15.8,30.87,North,0,0.0,0.0,71,0.00,,,0.00,WUHU216HW,2014-02-03 12:31:00,
2014-02-03 07:36:00,23.9,15.8,30.87,East,90,0.0,0.0,71,0.00,,,0.00,WUHU216HW,2014-02-03 12:36:00,
2014-02-03 07:41:00,23.9,15.8,30.87,North,0,0.0,0.0,71,0.00,,,0.00,WUHU216HW,2014-02-03 12:41:00,
2014-02-03 07:46:00,23.9,15.8,30.88,NNE,23,0.0,0.0,71,0.00,,,0.00,WUHU216HW,2014-02-03 12:46:00,
2014-02-03 07:51:00,23.9,15.8,30.88,NNE,23,0.0,0.0,71,0.00,,,0.00,WUHU216HW,2014-02-03 12:51:00,
2014-02-03 07:56:00,23.9,15.8,30.88,SE,135,0.0,0.0,71,0.00,,,0.00,WUHU216HW,2014-02-03 12:56:00,
2014-02-03 08:01:00,23.9,15.5,30.88,NNE,23,0.0,0.0,70,0.00,,,0.00,WUHU216HW,2014-02-03 13:01:00,
2014-02-03 08:06:00,23.9,15.5,30.88,North,0,0.0,0.0,70,0.00,,,0.00,WUHU216HW,2014-02-03 13:06:00,
2014-02-03 08:11:00,23.9,15.5,30.87,NNE,23,0.0,0.0,70,0.00,,,0.00,WUHU216HW,2014-02-03 13:11:00,
2014-02-03 08:16:00,23.9,15.5,30.88,NE,45,0.0,0.0,70,0.00,,,0.00,WUHU216HW,2014-02-03 13:16:00,
2014-02-03 08:21:00,24.0,15.6,30.89,WNW,293,0.0,0.0,70,0.00,,,0.00,WUHU216HW,2014-02-03 13:21:00,
2014-02-03 08:26:00,24.2,15.8,30.90,North,0,0.0,0.0,70,0.00,,,0.00,WUHU216HW,2014-02-03 13:26:00,
2014-02-03 08:31:00,24.2,15.8,30.90,North,0,0.0,0.0,70,0.00,,,0.00,WUHU216HW,2014-02-03 13:31:00,
2014-02-03 08:36:00,24.4,16.0,30.91,SE,135,0.0,0.0,70,0.00,,,0.00,WUHU216HW,2014-02-03 13:36:00,
2014-02-03 08:41:00,24.4,16.0,30.91,North,0,0.0,0.0,70,0.00,,,0.00,WUHU216HW,2014-02-03 13:41:00,
2014-02-03 08:46:00,24.8,15.9,30.91,NNE,23,0.0,0.0,69,0.00,,,0.00,WUHU216HW,2014-02-03 13:46:00,
2014-02-03 08:51:00,24.9,16.1,30.91,NNE,23,0.0,0.0,69,0.00,,,0.00,WUHU216HW,2014-02-03 13:51:00,
2014-02-03 08:56:00,24.9,16.1,30.92,NNE,23,0.0,0.0,69,0.00,,,0.00,WUHU216HW,2014-02-03 13:56:00,
2014-02-03 09:01:00,25.1,16.3,30.92,North,0,0.0,0.0,69,0.00,,,0.00,WUHU216HW,2014-02-03 14:01:00,
2014-02-03 09:06:00,25.1,16.1,30.92,North,0,0.0,0.0,68,0.00,,,0.00,WUHU216HW,2014-02-03 14:06:00,
2014-02-03 09:11:00,25.3,16.1,30.92,NNW,338,0.0,0.0,68,0.00,,,0.00,WUHU216HW,2014-02-03 14:11:00,
2014-02-03 09:16:00,25.5,16.3,30.92,North,0,0.0,0.0,68,0.00,,,0.00,WUHU216HW,2014-02-03 14:16:00,
2014-02-03 09:21:00,25.5,16.3,30.92,North,0,0.0,0.0,68,0.00,,,0.00,WUHU216HW,2014-02-03 14:21:00,
2014-02-03 09:26:00,25.8,16.7,30.93,WNW,293,0.0,0.0,68,0.00,,,0.00,WUHU216HW,2014-02-03 14:26:00,
2014-02-03 09:31:00,26.2,17.0,30.93,NNW,338,0.0,0.0,68,0.00,,,0.00,WUHU216HW,2014-02-03 14:31:00,
2014-02-03 09:36:00,26.2,16.7,30.94,North,0,0.0,0.0,67,0.00,,,0.00,WUHU216HW,2014-02-03 14:36:00,
2014-02-03 09:41:00,26.6,17.0,30.93,NNE,23,0.0,0.0,67,0.00,,,0.00,WUHU216HW,2014-02-03 14:41:00,
2014-02-03 09:46:00,26.9,17.4,30.94,North,0,0.0,0.0,67,0.00,,,0.00,WUHU216HW,2014-02-03 14:46:00,
2014-02-03 09:51:00,27.3,17.7,30.95,North,0,0.0,0.0,67,0.00,,,0.00,WUHU216HW,2014-02-03 14:51:00,
2014-02-03 09:56:00,27.8,17.9,30.95,NNE,23,0.0,0.0,66,0.00,,,0.00,WUHU216HW,2014-02-03 14:56:00,
2014-02-03 10:01:00,28.0,18.1,30.95,North,0,0.0,0.0,66,0.00,,,0.00,WUHU216HW,2014-02-03 15:01:00,
2014-02-03 10:06:00,28.2,18.3,30.95,WNW,293,0.0,0.0,66,0.00,,,0.00,WUHU216HW,2014-02-03 15:06:00,
2014-02-03 10:11:00,28.0,17.7,30.95,North,0,0.0,0.0,65,0.00,,,0.00,WUHU216HW,2014-02-03 15:11:00,
2014-02-03 10:16:00,28.0,17.7,30.95,West,270,0.0,0.0,65,0.00,,,0.00,WUHU216HW,2014-02-03 15:16:00,
2014-02-03 10:21:00,28.0,17.7,30.95,NNW,338,0.0,0.0,65,0.00,,,0.00,WUHU216HW,2014-02-03 15:21:00,
2014-02-03 10:26:00,28.4,18.1,30.96,NW,315,0.0,0.0,65,0.00,,,0.00,WUHU216HW,2014-02-03 15:26:00,
2014-02-03 10:31:00,28.5,17.9,30.96,NW,315,0.0,0.0,64,0.00,,,0.00,WUHU216HW,2014-02-03 15:31:00,
2014-02-03 10:36:00,28.5,17.9,30.96,WNW,293,0.0,0.0,64,0.00,,,0.00,WUHU216HW,2014-02-03 15:36:00,
2014-02-03 10:41:00,28.4,17.9,30.96,West,270,0.0,0.0,64,0.00,,,0.00,WUHU216HW,2014-02-03 15:41:00,
2014-02-03 10:46:00,28.5,17.5,30.95,NNW,338,0.0,0.0,63,0.00,,,0.00,WUHU216HW,2014-02-03 15:46:00,
2014-02-03 10:51:00,28.9,17.9,30.95,North,0,0.0,0.0,63,0.00,,,0.00,WUHU216HW,2014-02-03 15:51:00,
2014-02-03 10:56:00,29.3,18.2,30.96,WNW,293,0.0,0.0,64,0.00,,,0.00,WUHU216HW,2014-02-03 15:56:00,
2014-02-03 11:01:00,29.6,18.5,30.96,WNW,293,0.0,0.0,63,0.00,,,0.00,WUHU216HW,2014-02-03 16:01:00,
2014-02-03 11:06:00,29.6,18.5,30.96,North,0,0.0,0.0,63,0.00,,,0.00,WUHU216HW,2014-02-03 16:06:00,
2014-02-03 11:11:00,29.8,18.3,30.95,NNW,338,0.0,0.0,62,0.00,,,0.00,WUHU216HW,2014-02-03 16:11:00,
2014-02-03 11:16:00,29.8,17.9,30.95,NW,315,0.0,0.0,61,0.00,,,0.00,WUHU216HW,2014-02-03 16:16:00,
2014-02-03 11:21:00,30.0,18.1,30.96,NNE,23,0.0,0.0,61,0.00,,,0.00,WUHU216HW,2014-02-03 16:21:00,
2014-02-03 11:26:00,30.3,18.5,30.95,NW,315,0.0,0.0,61,0.00,,,0.00,WUHU216HW,2014-02-03 16:26:00,
2014-02-03 11:31:00,30.7,18.8,30.96,WNW,293,0.0,0.0,61,0.00,,,0.00,WUHU216HW,2014-02-03 16:31:00,
2014-02-03 11:36:00,31.1,19.2,30.95,NW,315,0.0,0.0,61,0.00,,,0.00,WUHU216HW,2014-02-03 16:36:00,
2014-02-03 11:41:00,31.1,18.8,30.95,NE,45,0.0,0.0,60,0.00,,,0.00,WUHU216HW,2014-02-03 16:41:00,
2014-02-03 11:46:00,31.1,18.8,30.95,NW,315,0.0,0.0,60,0.00,,,0.00,WUHU216HW,2014-02-03 16:46:00,
2014-02-03 11:51:00,31.8,19.5,30.96,South,180,0.0,0.0,60,0.00,,,0.00,WUHU216HW,2014-02-03 16:51:00,
2014-02-03 11:56:00,32.1,19.9,30.96,NNW,338,0.0,0.0,60,0.00,,,0.00,WUHU216HW,2014-02-03 16:56:00,
2014-02-03 12:01:00,32.5,19.8,30.96,NE,45,0.0,0.0,59,0.00,,,0.00,WUHU216HW,2014-02-03 17:01:00,
2014-02-03 12:06:00,32.9,20.1,30.96,North,0,0.0,0.0,59,0.00,,,0.00,WUHU216HW,2014-02-03 17:06:00,
2014-02-03 12:11:00,33.2,20.0,30.96,NW,315,0.0,0.0,58,0.00,,,0.00,WUHU216HW,2014-02-03 17:11:00,
2014-02-03 12:16:00,33.4,19.7,30.95,SSE,158,0.0,0.0,57,0.00,,,0.00,WUHU216HW,2014-02-03 17:16:00,
2014-02-03 12:21:00,33.4,19.3,30.95,NNW,338,0.0,0.0,56,0.00,,,0.00,WUHU216HW,2014-02-03 17:21:00,
2014-02-03 12:26:00,33.4,18.8,30.95,NW,315,0.0,0.0,56,0.00,,,0.00,WUHU216HW,2014-02-03 17:26:00,
2014-02-03 12:31:00,33.4,18.8,30.95,NNE,23,0.0,0.0,55,0.00,,,0.00,WUHU216HW,2014-02-03 17:31:00,
2014-02-03 12:36:00,33.4,18.8,30.95,NNE,23,0.0,0.0,55,0.00,,,0.00,WUHU216HW,2014-02-03 17:36:00,
2014-02-03 12:41:00,33.9,18.9,30.94,North,0,0.0,0.0,54,0.00,,,0.00,WUHU216HW,2014-02-03 17:41:00,
2014-02-03 12:46:00,34.1,19.1,30.94,WNW,293,0.0,0.0,54,0.00,,,0.00,WUHU216HW,2014-02-03 17:46:00,
2014-02-03 12:51:00,34.1,18.7,30.95,NW,315,0.0,0.0,53,0.00,,,0.00,WUHU216HW,2014-02-03 17:51:00,
2014-02-03 12:56:00,33.9,18.1,30.94,West,270,0.0,0.0,52,0.00,,,0.00,WUHU216HW,2014-02-03 17:56:00,
2014-02-03 13:01:00,33.9,18.1,30.94,WNW,293,0.0,0.0,52,0.00,,,0.00,WUHU216HW,2014-02-03 18:01:00,
2014-02-03 13:06:00,34.3,18.4,30.94,NW,315,1.7,1.7,52,0.00,,,0.00,WUHU216HW,2014-02-03 18:06:00,
2014-02-03 13:11:00,34.1,18.0,30.94,North,0,0.0,1.7,51,0.00,,,0.00,WUHU216HW,2014-02-03 18:11:00,
2014-02-03 13:16:00,34.3,18.0,30.93,WNW,293,0.0,4.6,51,0.00,,,0.00,WUHU216HW,2014-02-03 18:16:00,
2014-02-03 13:21:00,35.7,19.8,30.93,NW,315,2.9,4.6,52,0.00,,,0.00,WUHU216HW,2014-02-03 18:21:00,
2014-02-03 13:26:00,38.1,21.9,30.94,NE,45,1.3,2.9,52,0.00,,,0.00,WUHU216HW,2014-02-03 18:26:00,
2014-02-03 13:31:00,39.7,23.0,30.93,WNW,293,0.0,1.3,51,0.00,,,0.00,WUHU216HW,2014-02-03 18:31:00,
2014-02-03 13:36:00,40.1,22.3,30.94,SW,225,0.0,2.4,49,0.00,,,0.00,WUHU216HW,2014-02-03 18:36:00,
2014-02-03 13:41:00,39.3,20.1,30.94,WSW,248,1.7,2.9,46,0.00,,,0.00,WUHU216HW,2014-02-03 18:41:00,
2014-02-03 13:46:00,38.8,19.1,30.94,East,90,0.0,2.9,45,0.00,,,0.00,WUHU216HW,2014-02-03 18:46:00,
2014-02-03 13:51:00,38.6,19.5,30.93,NNW,338,2.9,2.9,46,0.00,,,0.00,WUHU216HW,2014-02-03 18:51:00,
2014-02-03 13:56:00,38.3,18.6,30.93,North,0,0.0,2.9,45,0.00,,,0.00,WUHU216HW,2014-02-03 18:56:00,
2014-02-03 14:01:00,37.2,18.0,30.93,North,0,0.0,2.6,45,0.00,,,0.00,WUHU216HW,2014-02-03 19:01:00,
2014-02-03 14:06:00,36.8,16.8,30.93,SW,225,0.8,2.6,44,0.00,,,0.00,WUHU216HW,2014-02-03 19:06:00,
2014-02-03 14:11:00,36.8,17.5,30.93,West,270,1.3,2.6,45,0.00,,,0.00,WUHU216HW,2014-02-03 19:11:00,
2014-02-03 14:16:00,37.9,18.5,30.94,West,270,3.5,3.5,45,0.00,,,0.00,WUHU216HW,2014-02-03 19:16:00,
2014-02-03 14:21:00,37.7,17.6,30.94,SW,225,0.6,3.5,44,0.00,,,0.00,WUHU216HW,2014-02-03 19:21:00,
2014-02-03 14:26:00,38.4,18.3,30.95,NNW,338,3.8,3.8,44,0.00,,,0.00,WUHU216HW,2014-02-03 19:26:00,
2014-02-03 14:31:00,39.3,18.6,30.96,West,270,1.1,3.8,43,0.00,,,0.00,WUHU216HW,2014-02-03 19:31:00,
2014-02-03 14:36:00,38.4,16.7,30.96,North,0,0.0,3.5,41,0.00,,,0.00,WUHU216HW,2014-02-03 19:36:00,
2014-02-03 14:41:00,37.5,15.4,30.96,WNW,293,0.0,3.3,40,0.00,,,0.00,WUHU216HW,2014-02-03 19:41:00,
2014-02-03 14:46:00,38.4,16.7,30.96,WSW,248,2.6,2.6,41,0.00,,,0.00,WUHU216HW,2014-02-03 19:46:00,
2014-02-03 14:51:00,39.9,18.2,30.95,West,270,0.0,4.0,41,0.00,,,0.00,WUHU216HW,2014-02-03 19:51:00,
2014-02-03 14:56:00,41.3,18.9,30.95,WNW,293,3.1,4.0,40,0.00,,,0.00,WUHU216HW,2014-02-03 19:56:00,
2014-02-03 15:01:00,42.4,19.1,30.95,West,270,0.0,3.1,39,0.00,,,0.00,WUHU216HW,2014-02-03 20:01:00,
2014-02-03 15:06:00,43.7,19.4,30.95,NNW,338,0.0,3.1,39,0.00,,,0.00,WUHU216HW,2014-02-03 20:06:00,
2014-02-03 15:11:00,45.1,21.5,30.96,WNW,293,2.0,4.4,39,0.00,,,0.00,WUHU216HW,2014-02-03 20:11:00,
2014-02-03 15:16:00,46.0,21.0,30.95,North,0,0.0,4.4,37,0.00,,,0.00,WUHU216HW,2014-02-03 20:16:00,
2014-02-03 15:21:00,46.7,20.3,30.95,West,270,0.0,3.1,35,0.00,,,0.00,WUHU216HW,2014-02-03 20:21:00,
2014-02-03 15:26:00,46.9,19.8,30.95,NW,315,0.4,3.1,34,0.00,,,0.00,WUHU216HW,2014-02-03 20:26:00,
2014-02-03 15:31:00,47.1,19.3,30.95,SSW,203,0.8,3.1,33,0.00,,,0.00,WUHU216HW,2014-02-03 20:31:00,
2014-02-03 15:36:00,47.3,19.5,30.95,NW,315,0.0,2.0,33,0.00,,,0.00,WUHU216HW,2014-02-03 20:36:00,
2014-02-03 15:41:00,47.8,20.6,30.95,SSW,203,0.0,2.0,34,0.00,,,0.00,WUHU216HW,2014-02-03 20:41:00,
2014-02-03 15:46:00,48.3,20.4,30.95,NNW,338,2.2,2.2,33,0.00,,,0.00,WUHU216HW,2014-02-03 20:46:00,
2014-02-03 15:51:00,48.3,19.1,30.95,West,270,0.0,2.2,31,0.00,,,0.00,WUHU216HW,2014-02-03 20:51:00,
2014-02-03 15:56:00,48.5,18.6,30.95,North,0,0.0,2.9,30,0.00,,,0.00,WUHU216HW,2014-02-03 20:56:00,
2014-02-03 16:01:00,48.5,8.0,30.95,WSW,248,1.7,2.9,19,0.00,,,0.00,WUHU216HW,2014-02-03 21:01:00,
2014-02-03 16:06:00,48.3,7.9,30.95,NNE,23,0.0,1.7,19,0.00,,,0.00,WUHU216HW,2014-02-03 21:06:00,
2014-02-03 16:11:00,48.5,8.0,30.95,WNW,293,0.0,1.5,19,0.00,,,0.00,WUHU216HW,2014-02-03 21:11:00,
2014-02-03 16:16:00,48.5,8.0,30.95,NW,315,0.0,1.3,19,0.00,,,0.00,WUHU216HW,2014-02-03 21:16:00,
2014-02-03 16:21:00,48.0,7.6,30.97,WNW,293,0.0,2.9,19,0.00,,,0.00,WUHU216HW,2014-02-03 21:21:00,
2014-02-03 16:26:00,47.6,7.3,30.97,NW,315,0.0,2.9,19,0.00,,,0.00,WUHU216HW,2014-02-03 21:26:00,
2014-02-03 16:31:00,46.9,6.7,30.97,North,0,0.0,2.2,19,0.00,,,0.00,WUHU216HW,2014-02-03 21:31:00,
2014-02-03 16:36:00,45.5,5.6,30.97,West,270,0.0,2.2,19,0.00,,,0.00,WUHU216HW,2014-02-03 21:36:00,
2014-02-03 16:41:00,43.7,4.1,30.97,West,270,1.3,2.9,19,0.00,,,0.00,WUHU216HW,2014-02-03 21:41:00,
2014-02-03 16:46:00,41.9,2.6,30.97,SSW,203,0.0,2.9,19,0.00,,,0.00,WUHU216HW,2014-02-03 21:46:00,
2014-02-03 16:51:00,40.1,1.1,30.97,West,270,1.1,2.4,19,0.00,,,0.00,WUHU216HW,2014-02-03 21:51:00,
2014-02-03 16:56:00,39.2,0.3,30.97,WNW,293,1.5,3.5,19,0.00,,,0.00,WUHU216HW,2014-02-03 21:56:00,
2014-02-03 17:01:00,38.1,-0.6,30.97,NW,315,0.0,3.5,19,0.00,,,0.00,WUHU216HW,2014-02-03 22:01:00,
2014-02-03 17:06:00,37.0,-1.5,30.97,West,270,0.0,2.0,19,0.00,,,0.00,WUHU216HW,2014-02-03 22:06:00,
2014-02-03 17:11:00,36.5,-0.7,30.98,West,270,3.1,3.1,20,0.00,,,0.00,WUHU216HW,2014-02-03 22:11:00,
2014-02-03 17:16:00,35.9,-1.1,30.97,WNW,293,0.0,3.1,20,0.00,,,0.00,WUHU216HW,2014-02-03 22:16:00,
2014-02-03 17:21:00,35.4,1.9,30.97,West,270,2.4,2.4,24,0.00,,,0.00,WUHU216HW,2014-02-03 22:21:00,
2014-02-03 17:26:00,35.0,4.1,30.98,WNW,293,0.0,2.6,27,0.00,,,0.00,WUHU216HW,2014-02-03 22:26:00,
2014-02-03 17:31:00,34.5,4.5,30.98,West,270,1.5,2.6,27,0.00,,,0.00,WUHU216HW,2014-02-03 22:31:00,
2014-02-03 17:36:00,33.9,5.8,30.98,WSW,248,1.1,2.0,30,0.00,,,0.00,WUHU216HW,2014-02-03 22:36:00,
2014-02-03 17:41:00,33.2,5.2,30.99,NNW,338,0.0,4.6,30,0.00,,,0.00,WUHU216HW,2014-02-03 22:41:00,
2014-02-03 17:46:00,32.5,4.5,30.98,North,0,0.0,4.6,30,0.00,,,0.00,WUHU216HW,2014-02-03 22:46:00,
2014-02-03 17:51:00,32.1,4.8,30.99,North,0,0.0,0.0,31,0.00,,,0.00,WUHU216HW,2014-02-03 22:51:00,
2014-02-03 17:56:00,31.4,4.2,30.99,North,0,0.0,0.0,31,0.00,,,0.00,WUHU216HW,2014-02-03 22:56:00,
2014-02-03 18:01:00,30.7,4.2,30.99,North,0,0.0,0.0,32,0.00,,,0.00,WUHU216HW,2014-02-03 23:01:00,
2014-02-03 18:06:00,30.3,4.5,30.98,North,0,0.0,0.0,33,0.00,,,0.00,WUHU216HW,2014-02-03 23:06:00,
2014-02-03 18:11:00,29.8,4.6,30.98,North,0,0.0,0.0,34,0.00,,,0.00,WUHU216HW,2014-02-03 23:11:00,
2014-02-03 18:16:00,29.3,4.1,30.99,North,0,0.0,0.0,34,0.00,,,0.00,WUHU216HW,2014-02-03 23:16:00,
2014-02-03 18:21:00,28.9,4.4,30.99,NNW,338,0.0,0.0,35,0.00,,,0.00,WUHU216HW,2014-02-03 23:21:00,
2014-02-03 18:26:00,28.5,4.1,30.99,NNW,338,0.0,0.0,35,0.00,,,0.00,WUHU216HW,2014-02-03 23:26:00,
2014-02-03 18:31:00,28.0,3.6,30.98,NNW,338,0.0,0.0,35,0.00,,,0.00,WUHU216HW,2014-02-03 23:31:00,
2014-02-03 18:36:00,27.8,3.5,30.99,NNW,338,0.0,0.0,35,0.00,,,0.00,WUHU216HW,2014-02-03 23:36:00,
2014-02-03 18:41:00,27.5,3.8,31.00,NNW,338,0.0,0.0,36,0.00,,,0.00,WUHU216HW,2014-02-03 23:41:00,
2014-02-03 18:46:00,27.1,3.5,31.00,NNW,338,0.0,0.0,36,0.00,,,0.00,WUHU216HW,2014-02-03 23:46:00,
2014-02-03 18:51:00,26.9,3.3,31.00,NNW,338,0.0,0.0,36,0.00,,,0.00,WUHU216HW,2014-02-03 23:51:00,
2014-02-03 18:56:00,26.7,3.1,31.00,NNW,338,0.0,0.0,36,0.00,,,0.00,WUHU216HW,2014-02-03 23:56:00,
2014-02-03 19:01:00,26.2,2.8,31.00,NNW,338,0.0,0.0,36,0.00,,,0.00,WUHU216HW,2014-02-04 00:01:00,
2014-02-03 19:06:00,26.2,3.3,31.00,NNW,338,0.0,0.0,37,0.00,,,0.00,WUHU216HW,2014-02-04 00:06:00,
2014-02-03 19:11:00,26.0,3.1,31.01,NNW,338,0.0,0.0,37,0.00,,,0.00,WUHU216HW,2014-02-04 00:11:00,
2014-02-03 19:16:00,25.8,3.0,31.01,NNW,338,0.0,0.0,37,0.00,,,0.00,WUHU216HW,2014-02-04 00:16:00,
2014-02-03 19:21:00,25.7,3.4,31.01,NNW,338,0.0,0.0,38,0.00,,,0.00,WUHU216HW,2014-02-04 00:21:00,
2014-02-03 19:26:00,25.5,3.3,31.01,NNW,338,0.0,0.0,38,0.00,,,0.00,WUHU216HW,2014-02-04 00:26:00,
2014-02-03 19:31:00,25.3,3.1,31.01,NNW,338,0.0,0.0,38,0.00,,,0.00,WUHU216HW,2014-02-04 00:31:00,
2014-02-03 19:36:00,25.3,3.0,31.02,NNW,338,0.0,0.0,38,0.00,,,0.00,WUHU216HW,2014-02-04 00:36:00,
2014-02-03 19:41:00,25.1,3.0,31.03,NNW,338,0.0,0.0,38,0.00,,,0.00,WUHU216HW,2014-02-04 00:41:00,
2014-02-03 19:46:00,24.9,2.8,31.03,NNW,338,0.0,0.0,38,0.00,,,0.00,WUHU216HW,2014-02-04 00:46:00,
2014-02-03 19:51:00,24.6,3.1,31.03,NNW,338,0.0,0.0,38,0.00,,,0.00,WUHU216HW,2014-02-04 00:51:00,
2014-02-03 19:56:00,24.4,2.9,31.03,NNW,338,0.0,0.0,39,0.00,,,0.00,WUHU216HW,2014-02-04 00:56:00,
2014-02-03 20:01:00,24.2,2.2,31.04,NNW,338,0.0,0.0,38,0.00,,,0.00,WUHU216HW,2014-02-04 01:01:00,
2014-02-03 20:06:00,24.0,2.6,31.04,NNW,338,0.0,0.0,39,0.00,,,0.00,WUHU216HW,2014-02-04 01:06:00,
2014-02-03 20:11:00,23.9,2.4,31.03,NNW,338,0.0,0.0,39,0.00,,,0.00,WUHU216HW,2014-02-04 01:11:00,
2014-02-03 20:16:00,23.9,3.1,31.04,NNW,338,0.0,0.0,40,0.00,,,0.00,WUHU216HW,2014-02-04 01:16:00,
2014-02-03 20:21:00,23.7,2.9,31.04,NNW,338,0.0,0.0,40,0.00,,,0.00,WUHU216HW,2014-02-04 01:21:00,
2014-02-03 20:26:00,23.7,2.7,31.05,NNW,338,0.0,0.0,40,0.00,,,0.00,WUHU216HW,2014-02-04 01:26:00,
2014-02-03 20:31:00,23.5,2.7,31.05,NNW,338,0.0,0.0,40,0.00,,,0.00,WUHU216HW,2014-02-04 01:31:00,
2014-02-03 20:36:00,23.3,2.6,31.05,NNW,338,0.0,0.0,40,0.00,,,0.00,WUHU216HW,2014-02-04 01:36:00,
2014-02-03 20:41:00,23.3,2.6,31.05,NNW,338,0.0,0.0,40,0.00,,,0.00,WUHU216HW,2014-02-04 01:41:00,
2014-02-03 20:46:00,23.1,2.4,31.05,NNW,338,0.0,0.0,40,0.00,,,0.00,WUHU216HW,2014-02-04 01:46:00,
2014-02-03 20:51:00,23.1,2.4,31.05,NNW,338,0.0,0.0,40,0.00,,,0.00,WUHU216HW,2014-02-04 01:51:00,
2014-02-03 20:56:00,23.1,2.9,31.05,NNW,338,0.0,0.0,41,0.00,,,0.00,WUHU216HW,2014-02-04 01:56:00,
2014-02-03 21:01:00,23.1,2.9,31.05,NNW,338,0.0,0.0,41,0.00,,,0.00,WUHU216HW,2014-02-04 02:01:00,
2014-02-03 21:06:00,23.1,2.9,31.05,NNW,338,0.0,0.0,41,0.00,,,0.00,WUHU216HW,2014-02-04 02:06:00,
2014-02-03 21:11:00,23.0,2.7,31.05,NNW,338,0.0,0.0,41,0.00,,,0.00,WUHU216HW,2014-02-04 02:11:00,
2014-02-03 21:16:00,22.6,2.4,31.04,NNW,338,0.0,0.0,41,0.00,,,0.00,WUHU216HW,2014-02-04 02:16:00,
2014-02-03 21:21:00,22.6,2.9,31.04,NNW,338,0.0,0.0,42,0.00,,,0.00,WUHU216HW,2014-02-04 02:21:00,
2014-02-03 21:26:00,22.4,2.7,31.04,NNW,338,0.0,0.0,42,0.00,,,0.00,WUHU216HW,2014-02-04 02:26:00,
2014-02-03 21:31:00,22.4,2.7,31.04,NNW,338,0.0,0.0,42,0.00,,,0.00,WUHU216HW,2014-02-04 02:31:00,
2014-02-03 21:36:00,22.4,2.7,31.03,NNW,338,0.0,0.0,42,0.00,,,0.00,WUHU216HW,2014-02-04 02:36:00,
2014-02-03 21:41:00,22.2,2.6,31.04,NNW,338,0.0,0.0,42,0.00,,,0.00,WUHU216HW,2014-02-04 02:41:00,
2014-02-03 21:46:00,22.2,2.6,31.04,NNW,338,0.0,0.0,42,0.00,,,0.00,WUHU216HW,2014-02-04 02:46:00,
2014-02-03 21:51:00,22.1,2.4,31.04,NNW,338,0.0,0.0,42,0.00,,,0.00,WUHU216HW,2014-02-04 02:51:00,
2014-02-03 21:56:00,21.9,2.7,31.04,NNW,338,0.0,0.0,43,0.00,,,0.00,WUHU216HW,2014-02-04 02:56:00,
2014-02-03 22:01:00,21.9,2.7,31.03,NNW,338,0.0,0.0,43,0.00,,,0.00,WUHU216HW,2014-02-04 03:01:00,
2014-02-03 22:06:00,21.9,2.7,31.03,NNW,338,0.0,0.0,43,0.00,,,0.00,WUHU216HW,2014-02-04 03:06:00,
2014-02-03 22:11:00,21.9,2.7,31.03,NNW,338,0.0,0.0,43,0.00,,,0.00,WUHU216HW,2014-02-04 03:11:00,
2014-02-03 22:16:00,21.9,2.5,31.03,NNW,338,0.0,0.0,43,0.00,,,0.00,WUHU216HW,2014-02-04 03:16:00,
2014-02-03 22:21:00,21.7,2.5,31.03,NNW,338,0.0,0.0,43,0.00,,,0.00,WUHU216HW,2014-02-04 03:21:00,
2014-02-03 22:26:00,21.7,2.4,31.03,NNW,338,0.0,0.0,43,0.00,,,0.00,WUHU216HW,2014-02-04 03:26:00,
2014-02-03 22:31:00,21.5,2.8,31.03,NNW,338,0.0,0.0,44,0.00,,,0.00,WUHU216HW,2014-02-04 03:31:00,
2014-02-03 22:36:00,21.5,2.8,31.03,NNW,338,0.0,0.0,44,0.00,,,0.00,WUHU216HW,2014-02-04 03:36:00,
2014-02-03 22:41:00,21.3,2.8,31.03,NNW,338,0.0,0.0,44,0.00,,,0.00,WUHU216HW,2014-02-04 03:41:00,
2014-02-03 22:46:00,21.3,2.7,31.03,NNW,338,0.0,0.0,44,0.00,,,0.00,WUHU216HW,2014-02-04 03:46:00,
2014-02-03 22:51:00,21.3,2.7,31.03,NNW,338,0.0,0.0,44,0.00,,,0.00,WUHU216HW,2014-02-04 03:51:00,
2014-02-03 22:56:00,21.2,2.5,31.04,NNW,338,0.0,0.0,44,0.00,,,0.00,WUHU216HW,2014-02-04 03:56:00,
2014-02-03 23:01:00,21.2,2.5,31.03,NNW,338,0.0,0.0,44,0.00,,,0.00,WUHU216HW,2014-02-04 04:01:00,
2014-02-03 23:06:00,21.2,2.5,31.05,NNW,338,0.0,0.0,44,0.00,,,0.00,WUHU216HW,2014-02-04 04:06:00,
2014-02-03 23:11:00,21.0,2.8,31.04,NNW,338,0.0,0.0,45,0.00,,,0.00,WUHU216HW,2014-02-04 04:11:00,
2014-02-03 23:16:00,20.8,2.6,31.04,NNW,338,0.0,0.0,45,0.00,,,0.00,WUHU216HW,2014-02-04 04:16:00,
2014-02-03 23:21:00,20.8,2.2,31.05,NNW,338,0.0,0.0,44,0.00,,,0.00,WUHU216HW,2014-02-04 04:21:00,
2014-02-03 23:26:00,20.6,2.5,31.05,NNW,338,0.0,0.0,45,0.00,,,0.00,WUHU216HW,2014-02-04 04:26:00,
2014-02-03 23:31:00,20.6,2.5,31.05,NNW,338,0.0,0.0,45,0.00,,,0.00,WUHU216HW,2014-02-04 04:31:00,
2014-02-03 23:36:00,20.6,2.5,31.05,NNW,338,0.0,0.0,45,0.00,,,0.00,WUHU216HW,2014-02-04 04:36:00,
2014-02-03 23:41:00,20.4,2.3,31.05,NNW,338,0.0,0.0,45,0.00,,,0.00,WUHU216HW,2014-02-04 04:41:00,
2014-02-03 23:46:00,20.4,2.3,31.05,NNW,338,0.0,0.0,45,0.00,,,0.00,WUHU216HW,2014-02-04 04:46:00,
2014-02-03 23:51:00,20.3,2.2,31.06,NNW,338,0.0,0.0,45,0.00,,,0.00,WUHU216HW,2014-02-04 04:51:00,
2014-02-03 23:56:00,20.1,2.0,31.06,NNW,338,0.0,0.0,45,0.00,,,0.00,WUHU216HW,2014-02-04 04:56:00,